Tabellarische Ansicht des 1.8.2013


Die einzelnen Werte des Tages

Uhrzeit Temperatur Luftdruck Luftfeuchte Wind Hi-Wind Taupunkt THW Index Wind Chill Heat Index Solar- strahlung Regen

00:00

18.2 C

1015.2 hpa

79 %

1.6 km/h aus 104

4.8 km/h aus SSW

14.5 C

18.6 C

18.2 C

18.6 C

0 W/m

0.00 mm

00:05

18.1 C

1015.2 hpa

80 %

1.6 km/h aus 101

4.8 km/h aus SSW

14.6 C

18.4 C

18.1 C

18.4 C

0 W/m

0.00 mm

00:10

18.1 C

1015.2 hpa

80 %

1.6 km/h aus 104

4.8 km/h aus SSW

14.6 C

18.4 C

18.1 C

18.4 C

0 W/m

0.00 mm

00:15

18.0 C

1015.0 hpa

81 %

1.6 km/h aus 104

4.8 km/h aus SSW

14.7 C

18.3 C

18.0 C

18.3 C

0 W/m

0.00 mm

00:20

17.9 C

1015.0 hpa

81 %

1.6 km/h aus 108

4.8 km/h aus SSW

14.6 C

18.3 C

17.9 C

18.3 C

0 W/m

0.00 mm

00:25

17.9 C

1015.0 hpa

82 %

1.6 km/h aus 99

4.8 km/h aus SSW

14.8 C

18.2 C

17.9 C

18.2 C

0 W/m

0.00 mm

00:30

17.8 C

1014.8 hpa

82 %

0.0 km/h aus 105

4.8 km/h aus SSW

14.7 C

18.2 C

17.8 C

18.2 C

0 W/m

0.00 mm

00:35

17.8 C

1014.8 hpa

82 %

0.0 km/h aus 101

1.6 km/h aus SSW

14.7 C

18.2 C

17.8 C

18.2 C

0 W/m

0.00 mm

00:40

17.8 C

1014.8 hpa

82 %

0.0 km/h aus 106

1.6 km/h aus SSW

14.7 C

18.1 C

17.8 C

18.1 C

0 W/m

0.00 mm

00:45

17.8 C

1014.8 hpa

82 %

0.0 km/h aus 106

0.0 km/h aus ---

14.7 C

18.1 C

17.8 C

18.1 C

0 W/m

0.00 mm

00:50

17.7 C

1014.8 hpa

82 %

0.0 km/h aus 105

0.0 km/h aus ---

14.6 C

18.0 C

17.7 C

18.0 C

0 W/m

0.00 mm

00:55

17.7 C

1014.8 hpa

82 %

0.0 km/h aus 109

0.0 km/h aus ---

14.6 C

18.0 C

17.7 C

18.0 C

0 W/m

0.00 mm

01:00

17.7 C

1014.8 hpa

82 %

0.0 km/h aus 111

1.6 km/h aus SSW

14.6 C

17.9 C

17.7 C

17.9 C

0 W/m

0.00 mm

01:05

17.7 C

1014.8 hpa

83 %

0.0 km/h aus 107

3.2 km/h aus SSW

14.7 C

17.9 C

17.7 C

17.9 C

0 W/m

0.00 mm

01:10

17.7 C

1014.8 hpa

83 %

0.0 km/h aus 109

4.8 km/h aus SSW

14.7 C

17.9 C

17.7 C

17.9 C

0 W/m

0.00 mm

01:15

17.7 C

1014.8 hpa

83 %

1.6 km/h aus 108

4.8 km/h aus SSW

14.7 C

17.9 C

17.7 C

17.9 C

0 W/m

0.00 mm

01:20

17.7 C

1014.8 hpa

83 %

1.6 km/h aus 103

4.8 km/h aus SSW

14.7 C

17.9 C

17.7 C

17.9 C

0 W/m

0.00 mm

01:25

17.6 C

1014.8 hpa

83 %

1.6 km/h aus 106

4.8 km/h aus SSW

14.7 C

17.9 C

17.6 C

17.9 C

0 W/m

0.00 mm

01:30

17.6 C

1014.8 hpa

84 %

1.6 km/h aus 110

4.8 km/h aus SSW

14.9 C

17.9 C

17.6 C

17.9 C

0 W/m

0.00 mm

01:35

17.6 C

1014.8 hpa

84 %

1.6 km/h aus 111

4.8 km/h aus SSW

14.9 C

17.9 C

17.6 C

17.9 C

0 W/m

0.00 mm

01:40

17.6 C

1014.8 hpa

84 %

1.6 km/h aus 109

4.8 km/h aus SSW

14.8 C

17.8 C

17.6 C

17.8 C

0 W/m

0.00 mm

01:45

17.6 C

1014.8 hpa

84 %

1.6 km/h aus 106

4.8 km/h aus SSW

14.8 C

17.8 C

17.6 C

17.8 C

0 W/m

0.00 mm

01:50

17.6 C

1014.8 hpa

84 %

3.2 km/h aus 110

6.4 km/h aus SSW

14.8 C

17.8 C

17.6 C

17.8 C

0 W/m

0.00 mm

01:55

17.6 C

1014.8 hpa

84 %

3.2 km/h aus 108

8.0 km/h aus SSW

14.8 C

17.8 C

17.6 C

17.8 C

0 W/m

0.00 mm

02:00

17.6 C

1014.8 hpa

84 %

3.2 km/h aus 108

8.0 km/h aus S

14.8 C

17.8 C

17.6 C

17.8 C

0 W/m

0.00 mm

02:05

17.6 C

1014.8 hpa

84 %

3.2 km/h aus 109

8.0 km/h aus SSE

14.8 C

17.8 C

17.6 C

17.8 C

0 W/m

0.00 mm

02:10

17.6 C

1014.8 hpa

85 %

3.2 km/h aus 95

6.4 km/h aus SSE

15.0 C

17.9 C

17.6 C

17.9 C

0 W/m

0.00 mm

02:15

17.5 C

1014.7 hpa

85 %

1.6 km/h aus 85

4.8 km/h aus SSE

14.9 C

17.8 C

17.5 C

17.8 C

0 W/m

0.00 mm

02:20

17.5 C

1014.7 hpa

85 %

1.6 km/h aus 89

4.8 km/h aus SSE

14.9 C

17.8 C

17.5 C

17.8 C

0 W/m

0.00 mm

02:25

17.5 C

1014.7 hpa

85 %

1.6 km/h aus 89

4.8 km/h aus SSE

14.9 C

17.8 C

17.5 C

17.8 C

0 W/m

0.00 mm

02:30

17.5 C

1014.7 hpa

85 %

1.6 km/h aus 88

4.8 km/h aus SSE

14.9 C

17.8 C

17.5 C

17.8 C

0 W/m

0.00 mm

02:35

17.5 C

1014.7 hpa

85 %

0.0 km/h aus 92

3.2 km/h aus SSE

14.9 C

17.8 C

17.5 C

17.8 C

0 W/m

0.00 mm

02:40

17.5 C

1014.7 hpa

85 %

1.6 km/h aus 93

4.8 km/h aus SSE

14.9 C

17.8 C

17.5 C

17.8 C

0 W/m

0.00 mm

02:45

17.5 C

1014.7 hpa

85 %

1.6 km/h aus 97

4.8 km/h aus SSE

14.9 C

17.8 C

17.5 C

17.8 C

0 W/m

0.00 mm

02:50

17.4 C

1014.7 hpa

85 %

0.0 km/h aus 93

4.8 km/h aus SSE

14.9 C

17.7 C

17.4 C

17.7 C

0 W/m

0.00 mm

02:55

17.4 C

1014.7 hpa

85 %

0.0 km/h aus 100

3.2 km/h aus SSE

14.9 C

17.7 C

17.4 C

17.7 C

0 W/m

0.00 mm

03:00

17.4 C

1014.7 hpa

85 %

0.0 km/h aus 97

3.2 km/h aus SSE

14.9 C

17.7 C

17.4 C

17.7 C

0 W/m

0.00 mm

03:05

17.4 C

1014.7 hpa

85 %

0.0 km/h aus 93

1.6 km/h aus SSE

14.8 C

17.7 C

17.4 C

17.7 C

0 W/m

0.00 mm

03:10

17.3 C

1014.7 hpa

85 %

1.6 km/h aus 105

6.4 km/h aus SSE

14.8 C

17.6 C

17.3 C

17.6 C

0 W/m

0.00 mm

03:15

17.3 C

1014.7 hpa

85 %

4.8 km/h aus 91

8.0 km/h aus SSE

14.7 C

17.6 C

17.3 C

17.6 C

0 W/m

0.00 mm

03:20

17.2 C

1014.7 hpa

85 %

6.4 km/h aus 107

11.3 km/h aus SSE

14.7 C

17.5 C

17.2 C

17.5 C

0 W/m

0.00 mm

03:25

17.1 C

1014.7 hpa

85 %

4.8 km/h aus 107

6.4 km/h aus SSE

14.6 C

17.4 C

17.1 C

17.4 C

0 W/m

0.00 mm

03:30

17.1 C

1014.7 hpa

85 %

6.4 km/h aus 107

9.7 km/h aus SSE

14.5 C

17.3 C

17.1 C

17.3 C

0 W/m

0.00 mm

03:35

17.0 C

1014.7 hpa

85 %

6.4 km/h aus 99

9.7 km/h aus SSE

14.5 C

17.2 C

17.0 C

17.2 C

0 W/m

0.00 mm

03:40

16.9 C

1014.7 hpa

85 %

6.4 km/h aus 107

8.0 km/h aus SSE

14.4 C

17.2 C

16.9 C

17.2 C

0 W/m

0.00 mm

03:45

16.9 C

1014.6 hpa

86 %

6.4 km/h aus 110

11.3 km/h aus SSE

14.5 C

17.1 C

16.9 C

17.1 C

0 W/m

0.00 mm

03:50

16.8 C

1014.6 hpa

86 %

6.4 km/h aus 102

9.7 km/h aus SSE

14.5 C

17.1 C

16.8 C

17.1 C

0 W/m

0.00 mm

03:55

16.8 C

1014.6 hpa

86 %

6.4 km/h aus 103

9.7 km/h aus SSE

14.4 C

17.0 C

16.8 C

17.0 C

0 W/m

0.00 mm

04:00

16.8 C

1014.4 hpa

86 %

6.4 km/h aus 105

9.7 km/h aus SSE

14.4 C

17.0 C

16.8 C

17.0 C

0 W/m

0.00 mm

04:05

16.7 C

1014.4 hpa

86 %

6.4 km/h aus 104

9.7 km/h aus SSE

14.4 C

16.9 C

16.7 C

16.9 C

0 W/m

0.00 mm

04:10

16.7 C

1014.4 hpa

86 %

6.4 km/h aus 105

9.7 km/h aus SSE

14.3 C

16.8 C

16.7 C

16.8 C

0 W/m

0.00 mm

04:15

16.7 C

1014.3 hpa

87 %

6.4 km/h aus 107

9.7 km/h aus SSE

14.5 C

16.9 C

16.7 C

16.9 C

0 W/m

0.00 mm

04:20

16.7 C

1014.3 hpa

87 %

8.0 km/h aus 102

14.5 km/h aus S

14.5 C

16.9 C

16.7 C

16.9 C

0 W/m

0.00 mm

04:25

16.6 C

1014.3 hpa

87 %

6.4 km/h aus 106

9.7 km/h aus S

14.4 C

16.8 C

16.6 C

16.8 C

0 W/m

0.00 mm

04:30

16.6 C

1014.3 hpa

87 %

6.4 km/h aus 108

8.0 km/h aus S

14.4 C

16.8 C

16.6 C

16.8 C

0 W/m

0.00 mm

04:35

16.6 C

1014.3 hpa

87 %

4.8 km/h aus 106

6.4 km/h aus S

14.4 C

16.8 C

16.6 C

16.8 C

0 W/m

0.00 mm

04:40

16.6 C

1014.3 hpa

87 %

4.8 km/h aus 101

8.0 km/h aus S

14.4 C

16.8 C

16.6 C

16.8 C

0 W/m

0.00 mm

04:45

16.6 C

1014.0 hpa

87 %

4.8 km/h aus 103

9.7 km/h aus SSE

14.4 C

16.8 C

16.6 C

16.8 C

0 W/m

0.00 mm

04:50

16.5 C

1014.0 hpa

87 %

8.0 km/h aus 90

11.3 km/h aus ESE

14.3 C

16.7 C

16.5 C

16.7 C

0 W/m

0.00 mm

04:55

16.5 C

1014.0 hpa

87 %

6.4 km/h aus 82

14.5 km/h aus ESE

14.3 C

16.7 C

16.5 C

16.7 C

0 W/m

0.00 mm

05:00

16.5 C

1014.0 hpa

88 %

6.4 km/h aus 100

11.3 km/h aus SE

14.5 C

16.7 C

16.5 C

16.7 C

0 W/m

0.00 mm

05:05

16.5 C

1014.0 hpa

88 %

3.2 km/h aus 112

6.4 km/h aus SE

14.5 C

16.7 C

16.5 C

16.7 C

0 W/m

0.00 mm

05:10

16.5 C

1014.0 hpa

88 %

3.2 km/h aus 103

6.4 km/h aus SE

14.5 C

16.7 C

16.5 C

16.7 C

0 W/m

0.00 mm

05:15

16.5 C

1014.1 hpa

88 %

1.6 km/h aus 107

4.8 km/h aus SE

14.5 C

16.7 C

16.5 C

16.7 C

0 W/m

0.00 mm

05:20

16.4 C

1014.1 hpa

88 %

1.6 km/h aus 106

6.4 km/h aus SE

14.5 C

16.7 C

16.4 C

16.7 C

0 W/m

0.00 mm

05:25

16.4 C

1014.1 hpa

88 %

1.6 km/h aus 114

4.8 km/h aus SE

14.5 C

16.7 C

16.4 C

16.7 C

0 W/m

0.00 mm

05:30

16.3 C

1014.1 hpa

88 %

1.6 km/h aus 104

3.2 km/h aus SE

14.3 C

16.6 C

16.3 C

16.6 C

2 W/m

0.00 mm

05:35

16.3 C

1014.1 hpa

88 %

1.6 km/h aus 105

4.8 km/h aus SE

14.3 C

16.4 C

16.3 C

16.4 C

6 W/m

0.00 mm

05:40

16.2 C

1014.1 hpa

88 %

3.2 km/h aus 106

6.4 km/h aus SE

14.2 C

16.4 C

16.2 C

16.4 C

7 W/m

0.00 mm

05:45

16.2 C

1014.2 hpa

88 %

6.4 km/h aus 109

9.7 km/h aus SE

14.2 C

16.4 C

16.2 C

16.4 C

9 W/m

0.00 mm

05:50

16.2 C

1014.2 hpa

88 %

4.8 km/h aus 102

8.0 km/h aus SE

14.2 C

16.3 C

16.2 C

16.3 C

10 W/m

0.00 mm

05:55

16.2 C

1014.2 hpa

88 %

4.8 km/h aus 106

6.4 km/h aus SE

14.2 C

16.4 C

16.2 C

16.4 C

12 W/m

0.00 mm

06:00

16.2 C

1014.1 hpa

88 %

3.2 km/h aus 106

8.0 km/h aus SE

14.2 C

16.4 C

16.2 C

16.4 C

15 W/m

0.00 mm

06:05

16.2 C

1014.1 hpa

88 %

3.2 km/h aus 108

6.4 km/h aus SE

14.2 C

16.4 C

16.2 C

16.4 C

19 W/m

0.00 mm

06:10

16.3 C

1014.1 hpa

89 %

1.6 km/h aus 104

4.8 km/h aus SE

14.5 C

16.5 C

16.3 C

16.5 C

29 W/m

0.00 mm

06:15

16.3 C

1014.2 hpa

89 %

0.0 km/h aus 106

3.2 km/h aus SE

14.5 C

16.6 C

16.3 C

16.6 C

36 W/m

0.00 mm

06:20

16.3 C

1014.2 hpa

89 %

1.6 km/h aus 107

4.8 km/h aus SE

14.5 C

16.6 C

16.3 C

16.6 C

39 W/m

0.00 mm

06:25

16.4 C

1014.2 hpa

89 %

0.0 km/h aus 107

0.0 km/h aus ---

14.6 C

16.6 C

16.4 C

16.6 C

39 W/m

0.00 mm

06:30

16.4 C

1014.3 hpa

89 %

0.0 km/h aus 109

0.0 km/h aus ---

14.6 C

16.7 C

16.4 C

16.7 C

45 W/m

0.00 mm

06:35

16.5 C

1014.3 hpa

89 %

0.0 km/h aus 111

0.0 km/h aus ---

14.7 C

16.7 C

16.5 C

16.7 C

51 W/m

0.00 mm

06:40

16.5 C

1014.3 hpa

89 %

1.6 km/h aus 105

3.2 km/h aus SE

14.7 C

16.7 C

16.5 C

16.7 C

58 W/m

0.00 mm

06:45

16.6 C

1014.2 hpa

89 %

1.6 km/h aus 107

4.8 km/h aus SE

14.7 C

16.8 C

16.6 C

16.8 C

74 W/m

0.00 mm

06:50

16.6 C

1014.2 hpa

89 %

3.2 km/h aus 104

4.8 km/h aus SE

14.8 C

16.9 C

16.6 C

16.9 C

101 W/m

0.00 mm

06:55

16.7 C

1014.2 hpa

90 %

4.8 km/h aus 108

6.4 km/h aus SE

15.1 C

17.0 C

16.7 C

17.0 C

108 W/m

0.00 mm

07:00

16.8 C

1014.2 hpa

90 %

4.8 km/h aus 103

6.4 km/h aus SE

15.2 C

17.2 C

16.8 C

17.2 C

89 W/m

0.00 mm

07:05

16.9 C

1014.2 hpa

90 %

1.6 km/h aus 108

6.4 km/h aus SE

15.3 C

17.3 C

16.9 C

17.3 C

131 W/m

0.00 mm

07:10

17.1 C

1014.2 hpa

90 %

1.6 km/h aus 108

6.4 km/h aus SE

15.5 C

17.5 C

17.1 C

17.5 C

110 W/m

0.00 mm

07:15

17.3 C

1014.2 hpa

90 %

1.6 km/h aus 112

4.8 km/h aus SE

15.6 C

17.7 C

17.3 C

17.7 C

160 W/m

0.00 mm

07:20

17.5 C

1014.2 hpa

91 %

1.6 km/h aus 106

6.4 km/h aus SE

16.0 C

17.9 C

17.5 C

17.9 C

158 W/m

0.00 mm

07:25

17.8 C

1014.2 hpa

91 %

1.6 km/h aus 106

4.8 km/h aus SE

16.3 C

18.2 C

17.8 C

18.2 C

141 W/m

0.00 mm

07:30

18.1 C

1014.3 hpa

91 %

1.6 km/h aus 112

4.8 km/h aus SE

16.6 C

18.6 C

18.1 C

18.6 C

138 W/m

0.00 mm

07:35

18.3 C

1014.3 hpa

91 %

4.8 km/h aus 104

8.0 km/h aus SE

16.8 C

18.8 C

18.3 C

18.8 C

158 W/m

0.00 mm

07:40

18.5 C

1014.3 hpa

91 %

3.2 km/h aus 110

6.4 km/h aus SE

17.0 C

19.1 C

18.5 C

19.1 C

173 W/m

0.00 mm

07:45

18.7 C

1014.3 hpa

91 %

4.8 km/h aus 104

8.0 km/h aus SE

17.2 C

19.4 C

18.7 C

19.4 C

198 W/m

0.00 mm

07:50

18.9 C

1014.3 hpa

90 %

3.2 km/h aus 93

8.0 km/h aus SE

17.2 C

19.6 C

18.9 C

19.6 C

210 W/m

0.00 mm

07:55

19.1 C

1014.3 hpa

90 %

3.2 km/h aus 84

8.0 km/h aus SE

17.4 C

19.9 C

19.1 C

19.9 C

301 W/m

0.00 mm

08:00

19.3 C

1014.3 hpa

89 %

3.2 km/h aus 84

8.0 km/h aus SE

17.5 C

20.1 C

19.3 C

20.1 C

306 W/m

0.00 mm

08:05

19.6 C

1014.3 hpa

88 %

4.8 km/h aus 98

9.7 km/h aus SE

17.5 C

20.4 C

19.6 C

20.4 C

185 W/m

0.00 mm

08:10

19.8 C

1014.3 hpa

87 %

3.2 km/h aus 102

8.0 km/h aus SE

17.6 C

20.6 C

19.8 C

20.6 C

297 W/m

0.00 mm

08:15

20.1 C

1014.4 hpa

86 %

3.2 km/h aus 101

6.4 km/h aus SE

17.7 C

21.0 C

20.1 C

21.0 C

327 W/m

0.00 mm

08:20

20.4 C

1014.4 hpa

85 %

1.6 km/h aus 106

4.8 km/h aus SE

17.8 C

21.3 C

20.4 C

21.3 C

357 W/m

0.00 mm

08:25

20.8 C

1014.4 hpa

84 %

4.8 km/h aus 93

11.3 km/h aus SE

18.0 C

21.7 C

20.8 C

21.7 C

372 W/m

0.00 mm

08:30

21.1 C

1014.4 hpa

82 %

4.8 km/h aus 90

11.3 km/h aus SE

17.9 C

21.8 C

21.1 C

21.8 C

368 W/m

0.00 mm

08:35

21.4 C

1014.4 hpa

80 %

6.4 km/h aus 94

16.1 km/h aus SE

17.8 C

22.1 C

21.4 C

22.1 C

381 W/m

0.00 mm

08:40

21.8 C

1014.4 hpa

78 %

4.8 km/h aus 106

8.0 km/h aus SE

17.8 C

22.4 C

21.8 C

22.4 C

384 W/m

0.00 mm

08:45

22.2 C

1014.3 hpa

76 %

4.8 km/h aus 90

9.7 km/h aus SE

17.7 C

22.8 C

22.2 C

22.8 C

398 W/m

0.00 mm

08:50

22.5 C

1014.3 hpa

75 %

3.2 km/h aus 78

14.5 km/h aus SE

17.8 C

23.2 C

22.5 C

23.2 C

417 W/m

0.00 mm

08:55

22.8 C

1014.3 hpa

73 %

6.4 km/h aus 68

11.3 km/h aus SE

17.7 C

23.5 C

22.8 C

23.5 C

434 W/m

0.00 mm

09:00

23.1 C

1014.3 hpa

72 %

8.0 km/h aus 88

16.1 km/h aus SE

17.7 C

23.9 C

23.1 C

23.9 C

451 W/m

0.00 mm

09:05

23.3 C

1014.3 hpa

71 %

6.4 km/h aus 85

14.5 km/h aus SE

17.8 C

24.3 C

23.3 C

24.3 C

461 W/m

0.00 mm

09:10

23.6 C

1014.3 hpa

70 %

6.4 km/h aus 82

12.9 km/h aus SE

17.8 C

24.4 C

23.6 C

24.4 C

471 W/m

0.00 mm

09:15

23.6 C

1014.3 hpa

69 %

8.0 km/h aus 72

16.1 km/h aus SSE

17.5 C

24.4 C

23.6 C

24.4 C

481 W/m

0.00 mm

09:20

23.4 C

1014.3 hpa

70 %

4.8 km/h aus 77

9.7 km/h aus SSE

17.7 C

24.3 C

23.4 C

24.3 C

491 W/m

0.00 mm

09:25

23.7 C

1014.3 hpa

70 %

9.7 km/h aus 68

16.1 km/h aus SSE

17.9 C

24.6 C

23.7 C

24.6 C

505 W/m

0.00 mm

09:30

23.8 C

1014.3 hpa

69 %

11.3 km/h aus 74

19.3 km/h aus S

17.8 C

24.7 C

23.8 C

24.7 C

514 W/m

0.00 mm

09:35

24.0 C

1014.3 hpa

69 %

8.0 km/h aus 75

16.1 km/h aus SSE

18.0 C

24.9 C

24.0 C

24.9 C

528 W/m

0.00 mm

09:40

24.2 C

1014.3 hpa

67 %

12.9 km/h aus 60

17.7 km/h aus SSE

17.7 C

24.7 C

23.9 C

24.9 C

538 W/m

0.00 mm

09:45

24.4 C

1014.3 hpa

68 %

14.5 km/h aus 73

20.9 km/h aus SSE

18.1 C

24.6 C

23.7 C

25.3 C

547 W/m

0.00 mm

09:50

24.4 C

1014.3 hpa

67 %

14.5 km/h aus 66

20.9 km/h aus SSE

17.9 C

24.4 C

23.7 C

25.2 C

561 W/m

0.00 mm

09:55

24.6 C

1014.3 hpa

67 %

16.1 km/h aus 72

22.5 km/h aus SE

18.0 C

24.3 C

23.5 C

25.4 C

569 W/m

0.00 mm

10:00

24.7 C

1014.2 hpa

66 %

12.9 km/h aus 83

19.3 km/h aus SSE

17.9 C

25.2 C

24.4 C

25.4 C

585 W/m

0.00 mm

10:05

24.8 C

1014.2 hpa

67 %

12.9 km/h aus 78

19.3 km/h aus SSE

18.3 C

25.4 C

24.6 C

25.7 C

597 W/m

0.00 mm

10:10

24.8 C

1014.2 hpa

65 %

12.9 km/h aus 70

22.5 km/h aus SSE

17.8 C

25.2 C

24.5 C

25.5 C

574 W/m

0.00 mm

10:15

24.8 C

1014.2 hpa

66 %

11.3 km/h aus 68

17.7 km/h aus SSE

18.0 C

25.6 C

24.8 C

25.6 C

604 W/m

0.00 mm

10:20

25.1 C

1014.2 hpa

66 %

9.7 km/h aus 57

16.1 km/h aus SE

18.3 C

25.9 C

25.1 C

25.9 C

603 W/m

0.00 mm

10:25

25.3 C

1014.2 hpa

65 %

6.4 km/h aus 71

14.5 km/h aus SE

18.3 C

26.1 C

25.3 C

26.1 C

631 W/m

0.00 mm

10:30

25.6 C

1014.2 hpa

65 %

9.7 km/h aus 63

16.1 km/h aus SE

18.5 C

26.3 C

25.6 C

26.3 C

655 W/m

0.00 mm

10:35

25.6 C

1014.2 hpa

64 %

9.7 km/h aus 80

17.7 km/h aus ESE

18.3 C

26.3 C

25.6 C

26.3 C

664 W/m

0.00 mm

10:40

25.8 C

1014.2 hpa

65 %

11.3 km/h aus 64

19.3 km/h aus ESE

18.7 C

26.6 C

25.8 C

26.6 C

670 W/m

0.00 mm

10:45

26.1 C

1014.0 hpa

64 %

9.7 km/h aus 82

17.7 km/h aus SSE

18.7 C

26.9 C

26.1 C

26.9 C

640 W/m

0.00 mm

10:50

25.8 C

1014.0 hpa

63 %

6.4 km/h aus 92

14.5 km/h aus SE

18.3 C

26.6 C

25.8 C

26.6 C

662 W/m

0.00 mm

10:55

25.9 C

1014.0 hpa

62 %

9.7 km/h aus 91

16.1 km/h aus SE

18.1 C

26.7 C

25.9 C

26.7 C

647 W/m

0.00 mm

11:00

26.1 C

1013.8 hpa

62 %

6.4 km/h aus 97

20.9 km/h aus S

18.2 C

26.8 C

26.1 C

26.8 C

626 W/m

0.00 mm

11:05

26.4 C

1013.8 hpa

60 %

14.5 km/h aus 98

22.5 km/h aus S

18.1 C

26.5 C

25.8 C

27.1 C

620 W/m

0.00 mm

11:10

26.6 C

1013.8 hpa

60 %

11.3 km/h aus 85

24.1 km/h aus S

18.2 C

27.3 C

26.6 C

27.3 C

600 W/m

0.00 mm

11:15

26.2 C

1013.7 hpa

58 %

8.0 km/h aus 105

19.3 km/h aus SSW

17.3 C

26.7 C

26.2 C

26.7 C

671 W/m

0.00 mm

11:20

26.3 C

1013.7 hpa

61 %

11.3 km/h aus 81

20.9 km/h aus S

18.2 C

27.1 C

26.3 C

27.1 C

689 W/m

0.00 mm

11:25

26.7 C

1013.7 hpa

58 %

11.3 km/h aus 83

20.9 km/h aus S

17.8 C

27.3 C

26.7 C

27.3 C

733 W/m

0.00 mm

11:30

26.9 C

1013.7 hpa

58 %

9.7 km/h aus 102

17.7 km/h aus SSE

17.9 C

27.6 C

26.9 C

27.6 C

733 W/m

0.00 mm

11:35

26.8 C

1013.7 hpa

59 %

8.0 km/h aus 103

19.3 km/h aus S

18.1 C

27.6 C

26.8 C

27.6 C

754 W/m

0.00 mm

11:40

26.9 C

1013.7 hpa

60 %

9.7 km/h aus 89

17.7 km/h aus S

18.5 C

27.8 C

26.9 C

27.8 C

752 W/m

0.00 mm

11:45

27.3 C

1013.7 hpa

59 %

8.0 km/h aus 90

16.1 km/h aus SSE

18.6 C

28.2 C

27.3 C

28.2 C

757 W/m

0.00 mm

11:50

27.6 C

1013.7 hpa

57 %

9.7 km/h aus 74

20.9 km/h aus S

18.3 C

28.5 C

27.6 C

28.5 C

728 W/m

0.00 mm

11:55

27.6 C

1013.7 hpa

59 %

9.7 km/h aus 79

17.7 km/h aus SE

18.9 C

28.7 C

27.6 C

28.7 C

768 W/m

0.00 mm

12:00

27.5 C

1013.7 hpa

58 %

6.4 km/h aus 79

16.1 km/h aus SSE

18.5 C

28.4 C

27.5 C

28.4 C

779 W/m

0.00 mm

12:05

28.0 C

1013.7 hpa

58 %

11.3 km/h aus 74

17.7 km/h aus SSE

19.0 C

29.2 C

28.0 C

29.2 C

781 W/m

0.00 mm

12:10

27.9 C

1013.7 hpa

55 %

9.7 km/h aus 84

20.9 km/h aus SSE

18.1 C

28.8 C

27.9 C

28.8 C

775 W/m

0.00 mm

12:15

27.7 C

1013.7 hpa

57 %

8.0 km/h aus 90

22.5 km/h aus SSE

18.4 C

28.6 C

27.7 C

28.6 C

792 W/m

0.00 mm

12:20

28.1 C

1013.7 hpa

57 %

9.7 km/h aus 83

20.9 km/h aus SSE

18.7 C

29.2 C

28.1 C

29.2 C

779 W/m

0.00 mm

12:25

28.4 C

1013.7 hpa

55 %

11.3 km/h aus 76

20.9 km/h aus SE

18.5 C

29.5 C

28.4 C

29.5 C

804 W/m

0.00 mm

12:30

28.1 C

1013.6 hpa

57 %

9.7 km/h aus 84

17.7 km/h aus SSE

18.7 C

29.2 C

28.1 C

29.2 C

817 W/m

0.00 mm

12:35

28.5 C

1013.6 hpa

56 %

16.1 km/h aus 76

24.1 km/h aus SSE

18.9 C

29.1 C

27.8 C

29.8 C

817 W/m

0.00 mm

12:40

28.6 C

1013.6 hpa

55 %

12.9 km/h aus 86

19.3 km/h aus SSE

18.7 C

29.7 C

28.4 C

29.9 C

810 W/m

0.00 mm

12:45

28.2 C

1013.3 hpa

56 %

6.4 km/h aus 93

16.1 km/h aus SE

18.6 C

29.3 C

28.2 C

29.3 C

817 W/m

0.00 mm

12:50

28.6 C

1013.3 hpa

56 %

9.7 km/h aus 79

20.9 km/h aus SE

18.9 C

29.9 C

28.6 C

29.9 C

812 W/m

0.00 mm

12:55

28.7 C

1013.3 hpa

54 %

9.7 km/h aus 88

19.3 km/h aus SSE

18.4 C

29.9 C

28.7 C

29.9 C

727 W/m

0.00 mm

13:00

28.3 C

1013.2 hpa

56 %

11.3 km/h aus 99

17.7 km/h aus ESE

18.7 C

29.5 C

28.3 C

29.5 C

810 W/m

0.00 mm

13:05

28.5 C

1013.2 hpa

57 %

9.7 km/h aus 78

17.7 km/h aus SE

19.2 C

29.9 C

28.5 C

29.9 C

807 W/m

0.00 mm

13:10

28.7 C

1013.2 hpa

57 %

9.7 km/h aus 77

22.5 km/h aus SE

19.3 C

30.2 C

28.7 C

30.2 C

791 W/m

0.00 mm

13:15

28.8 C

1013.1 hpa

55 %

11.3 km/h aus 70

19.3 km/h aus SE

18.9 C

30.2 C

28.8 C

30.2 C

812 W/m

0.00 mm

13:20

28.7 C

1013.1 hpa

54 %

8.0 km/h aus 106

16.1 km/h aus SSW

18.5 C

29.9 C

28.7 C

29.9 C

827 W/m

0.00 mm

13:25

28.7 C

1013.1 hpa

55 %

6.4 km/h aus 104

17.7 km/h aus S

18.8 C

30.1 C

28.7 C

30.1 C

820 W/m

0.00 mm

13:30

29.2 C

1013.1 hpa

53 %

12.9 km/h aus 91

19.3 km/h aus SSE

18.7 C

30.4 C

29.1 C

30.6 C

819 W/m

0.00 mm

13:35

29.2 C

1013.1 hpa

51 %

8.0 km/h aus 106

16.1 km/h aus SE

18.0 C

30.3 C

29.2 C

30.3 C

812 W/m

0.00 mm

13:40

29.2 C

1013.1 hpa

55 %

11.3 km/h aus 83

22.5 km/h aus SSE

19.2 C

30.7 C

29.2 C

30.7 C

817 W/m

0.00 mm

13:45

29.3 C

1012.7 hpa

53 %

11.3 km/h aus 105

19.3 km/h aus S

18.8 C

30.7 C

29.3 C

30.7 C

822 W/m

0.00 mm

13:50

29.3 C

1012.7 hpa

53 %

8.0 km/h aus 115

16.1 km/h aus SSE

18.8 C

30.7 C

29.3 C

30.7 C

834 W/m

0.00 mm

13:55

29.3 C

1012.7 hpa

53 %

8.0 km/h aus 115

16.1 km/h aus ESE

18.8 C

30.7 C

29.3 C

30.7 C

821 W/m

0.00 mm

14:00

29.7 C

1012.6 hpa

54 %

11.3 km/h aus 113

22.5 km/h aus SE

19.4 C

31.4 C

29.7 C

31.4 C

818 W/m

0.00 mm

14:05

29.9 C

1012.6 hpa

50 %

14.5 km/h aus 114

22.5 km/h aus S

18.3 C

30.8 C

29.6 C

31.1 C

810 W/m

0.00 mm

14:10

29.3 C

1012.6 hpa

54 %

6.4 km/h aus 114

19.3 km/h aus SE

19.0 C

30.7 C

29.3 C

30.7 C

810 W/m

0.00 mm

14:15

29.3 C

1012.4 hpa

51 %

9.7 km/h aus 115

24.1 km/h aus SE

18.1 C

30.4 C

29.3 C

30.4 C

800 W/m

0.00 mm

14:20

29.7 C

1012.4 hpa

52 %

11.3 km/h aus 114

22.5 km/h aus SSE

18.8 C

31.1 C

29.7 C

31.1 C

795 W/m

0.00 mm

14:25

29.6 C

1012.4 hpa

53 %

4.8 km/h aus 117

11.3 km/h aus SE

19.0 C

31.1 C

29.6 C

31.1 C

785 W/m

0.00 mm

14:30

30.3 C

1012.3 hpa

52 %

14.5 km/h aus 116

24.1 km/h aus SE

19.4 C

32.0 C

30.1 C

32.2 C

788 W/m

0.00 mm

14:35

30.3 C

1012.3 hpa

49 %

11.3 km/h aus 114

22.5 km/h aus SSE

18.4 C

31.6 C

30.3 C

31.6 C

783 W/m

0.00 mm

14:40

30.3 C

1012.3 hpa

51 %

9.7 km/h aus 114

20.9 km/h aus ESE

19.0 C

31.9 C

30.3 C

31.9 C

777 W/m

0.00 mm

14:45

30.3 C

1012.2 hpa

50 %

9.7 km/h aus 114

17.7 km/h aus SE

18.7 C

31.8 C

30.3 C

31.8 C

770 W/m

0.00 mm

14:50

30.2 C

1012.2 hpa

49 %

8.0 km/h aus 112

16.1 km/h aus SE

18.3 C

31.5 C

30.2 C

31.5 C

767 W/m

0.00 mm

14:55

30.3 C

1012.2 hpa

48 %

8.0 km/h aus 113

17.7 km/h aus SSE

18.0 C

31.4 C

30.3 C

31.4 C

767 W/m

0.00 mm

15:00

30.4 C

1012.1 hpa

49 %

9.7 km/h aus 114

22.5 km/h aus SSE

18.5 C

31.9 C

30.4 C

31.9 C

751 W/m

0.00 mm

15:05

30.3 C

1012.1 hpa

47 %

11.3 km/h aus 114

20.9 km/h aus S

17.8 C

31.4 C

30.3 C

31.4 C

748 W/m

0.00 mm

15:10

30.4 C

1012.1 hpa

48 %

8.0 km/h aus 107

19.3 km/h aus SSE

18.2 C

31.8 C

30.4 C

31.8 C

741 W/m

0.00 mm

15:15

30.7 C

1012.0 hpa

48 %

11.3 km/h aus 111

22.5 km/h aus SE

18.5 C

32.2 C

30.7 C

32.2 C

729 W/m

0.00 mm

15:20

30.8 C

1012.0 hpa

47 %

9.7 km/h aus 114

19.3 km/h aus S

18.2 C

32.1 C

30.8 C

32.1 C

723 W/m

0.00 mm

15:25

30.8 C

1012.0 hpa

48 %

9.7 km/h aus 117

19.3 km/h aus ESE

18.5 C

32.2 C

30.8 C

32.2 C

713 W/m

0.00 mm

15:30

30.7 C

1011.8 hpa

47 %

8.0 km/h aus 112

17.7 km/h aus SSE

18.1 C

31.9 C

30.7 C

31.9 C

703 W/m

0.00 mm

15:35

30.3 C

1011.8 hpa

50 %

4.8 km/h aus 115

16.1 km/h aus ESE

18.7 C

31.8 C

30.3 C

31.8 C

698 W/m

0.00 mm

15:40

30.5 C

1011.8 hpa

49 %

11.3 km/h aus 117

20.9 km/h aus SE

18.6 C

32.0 C

30.5 C

32.0 C

686 W/m

0.00 mm

15:45

30.3 C

1011.6 hpa

47 %

6.4 km/h aus 117

16.1 km/h aus ESE

17.7 C

31.3 C

30.3 C

31.3 C

685 W/m

0.00 mm

15:50

30.3 C

1011.6 hpa

49 %

6.4 km/h aus 115

12.9 km/h aus ESE

18.4 C

31.6 C

30.3 C

31.6 C

676 W/m

0.00 mm

15:55

30.6 C

1011.6 hpa

48 %

4.8 km/h aus 115

14.5 km/h aus ESE

18.3 C

32.0 C

30.6 C

32.0 C

671 W/m

0.00 mm

16:00

30.8 C

1011.6 hpa

48 %

11.3 km/h aus 115

25.7 km/h aus S

18.6 C

32.3 C

30.8 C

32.3 C

660 W/m

0.00 mm

16:05

31.1 C

1011.6 hpa

46 %

11.3 km/h aus 116

22.5 km/h aus S

18.1 C

32.2 C

31.1 C

32.2 C

652 W/m

0.00 mm

16:10

31.0 C

1011.6 hpa

47 %

9.7 km/h aus 115

19.3 km/h aus ESE

18.4 C

32.3 C

31.0 C

32.3 C

644 W/m

0.00 mm

16:15

30.7 C

1011.5 hpa

46 %

6.4 km/h aus 116

14.5 km/h aus ESE

17.8 C

31.8 C

30.7 C

31.8 C

633 W/m

0.00 mm

16:20

31.1 C

1011.5 hpa

47 %

8.0 km/h aus 116

17.7 km/h aus SSE

18.4 C

32.4 C

31.1 C

32.4 C

624 W/m

0.00 mm

16:25

31.2 C

1011.5 hpa

47 %

8.0 km/h aus 117

17.7 km/h aus S

18.5 C

32.6 C

31.2 C

32.6 C

614 W/m

0.00 mm

16:30

31.2 C

1011.3 hpa

44 %

8.0 km/h aus 115

16.1 km/h aus SSE

17.5 C

32.1 C

31.2 C

32.1 C

599 W/m

0.00 mm

16:35

31.3 C

1011.3 hpa

45 %

8.0 km/h aus 117

17.7 km/h aus SSW

17.9 C

32.4 C

31.3 C

32.4 C

593 W/m

0.00 mm

16:40

31.4 C

1011.3 hpa

43 %

11.3 km/h aus 117

20.9 km/h aus SSE

17.4 C

32.4 C

31.4 C

32.4 C

584 W/m

0.00 mm

16:45

31.6 C

1011.4 hpa

43 %

11.3 km/h aus 117

19.3 km/h aus S

17.5 C

32.6 C

31.6 C

32.6 C

575 W/m

0.00 mm

16:50

31.3 C

1011.4 hpa

42 %

6.4 km/h aus 118

17.7 km/h aus S

16.8 C

31.8 C

31.3 C

31.8 C

564 W/m

0.00 mm

16:55

31.3 C

1011.4 hpa

43 %

4.8 km/h aus 116

16.1 km/h aus WSW

17.2 C

32.1 C

31.3 C

32.1 C

548 W/m

0.00 mm

17:00

31.2 C

1011.2 hpa

42 %

8.0 km/h aus 115

16.1 km/h aus SW

16.8 C

31.7 C

31.2 C

31.7 C

536 W/m

0.00 mm

17:05

31.3 C

1011.2 hpa

43 %

9.7 km/h aus 114

16.1 km/h aus WSW

17.3 C

32.2 C

31.3 C

32.2 C

526 W/m

0.00 mm

17:10

31.2 C

1011.2 hpa

43 %

8.0 km/h aus 116

9.7 km/h aus SW

17.2 C

31.9 C

31.2 C

31.9 C

518 W/m

0.00 mm

17:15

31.1 C

1011.1 hpa

42 %

4.8 km/h aus 110

9.7 km/h aus W

16.7 C

31.5 C

31.1 C

31.5 C

506 W/m

0.00 mm

17:20

31.1 C

1011.1 hpa

44 %

0.0 km/h aus 111

6.4 km/h aus W

17.4 C

31.8 C

31.1 C

31.8 C

494 W/m

0.00 mm

17:25

31.2 C

1011.1 hpa

43 %

3.2 km/h aus 115

11.3 km/h aus WSW

17.1 C

31.8 C

31.2 C

31.8 C

481 W/m

0.00 mm

17:30

31.4 C

1011.0 hpa

43 %

8.0 km/h aus 116

16.1 km/h aus S

17.4 C

32.4 C

31.4 C

32.4 C

467 W/m

0.00 mm

17:35

31.7 C

1011.0 hpa

44 %

4.8 km/h aus 116

11.3 km/h aus SSE

18.0 C

33.2 C

31.7 C

33.2 C

455 W/m

0.00 mm

17:40

31.6 C

1011.0 hpa

42 %

8.0 km/h aus 117

16.1 km/h aus SW

17.1 C

32.4 C

31.6 C

32.4 C

441 W/m

0.00 mm

17:45

31.3 C

1010.9 hpa

44 %

9.7 km/h aus 114

17.7 km/h aus SSW

17.6 C

32.3 C

31.3 C

32.3 C

429 W/m

0.00 mm

17:50

31.4 C

1010.9 hpa

43 %

9.7 km/h aus 115

17.7 km/h aus SSW

17.4 C

32.4 C

31.4 C

32.4 C

415 W/m

0.00 mm

17:55

31.2 C

1010.9 hpa

43 %

11.3 km/h aus 117

17.7 km/h aus S

17.2 C

31.9 C

31.2 C

31.9 C

405 W/m

0.00 mm

18:00

31.1 C

1010.8 hpa

44 %

6.4 km/h aus 116

16.1 km/h aus S

17.4 C

31.9 C

31.1 C

31.9 C

392 W/m

0.00 mm

18:05

31.1 C

1010.8 hpa

44 %

6.4 km/h aus 115

11.3 km/h aus SSW

17.4 C

31.9 C

31.1 C

31.9 C

380 W/m

0.00 mm

18:10

30.9 C

1010.8 hpa

43 %

3.2 km/h aus 117

9.7 km/h aus SW

16.9 C

31.6 C

30.9 C

31.6 C

366 W/m

0.00 mm

18:15

31.0 C

1010.6 hpa

45 %

4.8 km/h aus 116

8.0 km/h aus WSW

17.7 C

31.9 C

31.0 C

31.9 C

354 W/m

0.00 mm

18:20

31.1 C

1010.6 hpa

44 %

3.2 km/h aus 115

9.7 km/h aus SW

17.4 C

31.8 C

31.1 C

31.8 C

342 W/m

0.00 mm

18:25

31.1 C

1010.6 hpa

44 %

8.0 km/h aus 115

16.1 km/h aus SW

17.4 C

31.8 C

31.1 C

31.8 C

328 W/m

0.00 mm

18:30

31.2 C

1010.6 hpa

45 %

6.4 km/h aus 115

17.7 km/h aus S

17.8 C

32.2 C

31.2 C

32.2 C

314 W/m

0.00 mm

18:35

30.9 C

1010.6 hpa

45 %

9.7 km/h aus 117

19.3 km/h aus S

17.6 C

31.9 C

30.9 C

31.9 C

302 W/m

0.00 mm

18:40

30.8 C

1010.6 hpa

44 %

11.3 km/h aus 117

20.9 km/h aus S

17.2 C

31.6 C

30.8 C

31.6 C

288 W/m

0.00 mm

18:45

30.9 C

1010.6 hpa

45 %

8.0 km/h aus 117

12.9 km/h aus SSE

17.6 C

31.9 C

30.9 C

31.9 C

275 W/m

0.00 mm

18:50

30.8 C

1010.6 hpa

42 %

8.0 km/h aus 116

14.5 km/h aus S

16.4 C

31.3 C

30.8 C

31.3 C

263 W/m

0.00 mm

18:55

30.6 C

1010.6 hpa

43 %

8.0 km/h aus 118

16.1 km/h aus SSW

16.6 C

31.2 C

30.6 C

31.2 C

248 W/m

0.00 mm

19:00

30.5 C

1010.5 hpa

44 %

1.6 km/h aus 116

4.8 km/h aus S

16.9 C

31.2 C

30.5 C

31.2 C

104 W/m

0.00 mm

19:05

30.4 C

1010.5 hpa

45 %

3.2 km/h aus 116

8.0 km/h aus S

17.2 C

31.3 C

30.4 C

31.3 C

32 W/m

0.00 mm

19:10

30.4 C

1010.5 hpa

45 %

1.6 km/h aus 115

8.0 km/h aus S

17.2 C

31.3 C

30.4 C

31.3 C

31 W/m

0.00 mm

19:15

30.4 C

1010.5 hpa

45 %

3.2 km/h aus 115

8.0 km/h aus S

17.2 C

31.3 C

30.4 C

31.3 C

30 W/m

0.00 mm

19:20

30.4 C

1010.5 hpa

46 %

8.0 km/h aus 114

14.5 km/h aus SSE

17.5 C

31.3 C

30.4 C

31.3 C

30 W/m

0.00 mm

19:25

30.3 C

1010.5 hpa

48 %

8.0 km/h aus 116

12.9 km/h aus S

18.1 C

31.6 C

30.3 C

31.6 C

29 W/m

0.00 mm

19:30

30.2 C

1010.5 hpa

49 %

6.4 km/h aus 113

11.3 km/h aus SSE

18.3 C

31.5 C

30.2 C

31.5 C

28 W/m

0.00 mm

19:35

30.1 C

1010.5 hpa

50 %

3.2 km/h aus 114

11.3 km/h aus SSE

18.5 C

31.3 C

30.1 C

31.3 C

28 W/m

0.00 mm

19:40

29.9 C

1010.5 hpa

50 %

6.4 km/h aus 116

11.3 km/h aus ESE

18.4 C

31.2 C

29.9 C

31.2 C

26 W/m

0.00 mm

19:45

29.8 C

1010.5 hpa

51 %

4.8 km/h aus 115

9.7 km/h aus ESE

18.6 C

31.1 C

29.8 C

31.1 C

25 W/m

0.00 mm

19:50

29.6 C

1010.5 hpa

52 %

3.2 km/h aus 113

9.7 km/h aus ESE

18.7 C

30.9 C

29.6 C

30.9 C

24 W/m

0.00 mm

19:55

29.4 C

1010.5 hpa

52 %

3.2 km/h aus 116

8.0 km/h aus SE

18.6 C

30.7 C

29.4 C

30.7 C

23 W/m

0.00 mm

20:00

29.3 C

1010.5 hpa

53 %

3.2 km/h aus 117

11.3 km/h aus SE

18.8 C

30.7 C

29.3 C

30.7 C

21 W/m

0.00 mm

20:05

29.2 C

1010.5 hpa

53 %

1.6 km/h aus 116

3.2 km/h aus SE

18.6 C

30.5 C

29.2 C

30.5 C

21 W/m

0.00 mm

20:10

29.0 C

1010.5 hpa

53 %

1.6 km/h aus 116

4.8 km/h aus SE

18.5 C

30.3 C

29.0 C

30.3 C

19 W/m

0.00 mm

20:15

28.9 C

1010.5 hpa

54 %

1.6 km/h aus 116

4.8 km/h aus SE

18.6 C

30.2 C

28.9 C

30.2 C

19 W/m

0.00 mm

20:20

28.7 C

1010.5 hpa

54 %

3.2 km/h aus 112

6.4 km/h aus SE

18.5 C

29.9 C

28.7 C

29.9 C

18 W/m

0.00 mm

20:25

28.6 C

1010.5 hpa

55 %

1.6 km/h aus 115

4.8 km/h aus SE

18.6 C

29.8 C

28.6 C

29.8 C

16 W/m

0.00 mm

20:30

28.4 C

1010.6 hpa

55 %

0.0 km/h aus 111

1.6 km/h aus SE

18.5 C

29.5 C

28.4 C

29.5 C

15 W/m

0.00 mm

20:35

28.2 C

1010.6 hpa

56 %

0.0 km/h aus 113

1.6 km/h aus SE

18.6 C

29.3 C

28.2 C

29.3 C

13 W/m

0.00 mm

20:40

28.1 C

1010.6 hpa

57 %

1.6 km/h aus 115

8.0 km/h aus SE

18.7 C

29.2 C

28.1 C

29.2 C

12 W/m

0.00 mm

20:45

27.8 C

1010.8 hpa

58 %

3.2 km/h aus 117

6.4 km/h aus SE

18.8 C

28.9 C

27.8 C

28.9 C

11 W/m

0.00 mm

20:50

27.7 C

1010.8 hpa

58 %

3.2 km/h aus 115

6.4 km/h aus SE

18.7 C

28.7 C

27.7 C

28.7 C

10 W/m

0.00 mm

20:55

27.4 C

1010.8 hpa

59 %

1.6 km/h aus 113

6.4 km/h aus SE

18.7 C

28.4 C

27.4 C

28.4 C

8 W/m

0.00 mm

21:00

27.2 C

1010.9 hpa

59 %

3.2 km/h aus 115

8.0 km/h aus SE

18.5 C

28.1 C

27.2 C

28.1 C

7 W/m

0.00 mm

21:05

27.1 C

1010.9 hpa

60 %

3.2 km/h aus 112

6.4 km/h aus SE

18.6 C

27.9 C

27.1 C

27.9 C

5 W/m

0.00 mm

21:10

26.8 C

1010.9 hpa

60 %

3.2 km/h aus 113

8.0 km/h aus SE

18.4 C

27.6 C

26.8 C

27.6 C

2 W/m

0.00 mm

21:15

26.7 C

1011.0 hpa

61 %

3.2 km/h aus 116

6.4 km/h aus SE

18.5 C

27.4 C

26.7 C

27.4 C

0 W/m

0.00 mm

21:20

26.4 C

1011.0 hpa

61 %

4.8 km/h aus 113

8.0 km/h aus SE

18.3 C

27.2 C

26.4 C

27.2 C

0 W/m

0.00 mm

21:25

26.3 C

1011.0 hpa

62 %

4.8 km/h aus 113

8.0 km/h aus SE

18.4 C

27.1 C

26.3 C

27.1 C

0 W/m

0.00 mm

21:30

26.1 C

1011.0 hpa

62 %

3.2 km/h aus 112

8.0 km/h aus SE

18.2 C

26.8 C

26.1 C

26.8 C

0 W/m

0.00 mm

21:35

25.9 C

1011.0 hpa

63 %

3.2 km/h aus 113

6.4 km/h aus SE

18.4 C

26.7 C

25.9 C

26.7 C

0 W/m

0.00 mm

21:40

25.7 C

1011.0 hpa

63 %

3.2 km/h aus 113

8.0 km/h aus SE

18.1 C

26.4 C

25.7 C

26.4 C

0 W/m

0.00 mm

21:45

25.5 C

1011.0 hpa

63 %

3.2 km/h aus 114

6.4 km/h aus SE

17.9 C

26.2 C

25.5 C

26.2 C

0 W/m

0.00 mm

21:50

25.3 C

1011.0 hpa

64 %

1.6 km/h aus 113

4.8 km/h aus SE

18.0 C

26.0 C

25.3 C

26.0 C

0 W/m

0.00 mm

21:55

25.1 C

1011.0 hpa

64 %

3.2 km/h aus 112

8.0 km/h aus SE

17.8 C

25.8 C

25.1 C

25.8 C

0 W/m

0.00 mm

22:00

24.9 C

1011.0 hpa

65 %

3.2 km/h aus 113

8.0 km/h aus SE

17.9 C

25.7 C

24.9 C

25.7 C

0 W/m

0.00 mm

22:05

24.8 C

1011.0 hpa

65 %

1.6 km/h aus 115

4.8 km/h aus SE

17.8 C

25.5 C

24.8 C

25.5 C

0 W/m

0.00 mm

22:10

24.6 C

1011.0 hpa

65 %

1.6 km/h aus 114

4.8 km/h aus SE

17.6 C

25.3 C

24.6 C

25.3 C

0 W/m

0.00 mm

22:15

24.4 C

1011.0 hpa

66 %

3.2 km/h aus 112

8.0 km/h aus SE

17.7 C

25.2 C

24.4 C

25.2 C

0 W/m

0.00 mm

22:20

24.3 C

1011.0 hpa

66 %

3.2 km/h aus 116

6.4 km/h aus SE

17.5 C

25.0 C

24.3 C

25.0 C

0 W/m

0.00 mm

22:25

24.1 C

1011.0 hpa

67 %

3.2 km/h aus 116

6.4 km/h aus SE

17.6 C

24.9 C

24.1 C

24.9 C

0 W/m

0.00 mm

22:30

23.9 C

1011.0 hpa

67 %

3.2 km/h aus 110

8.0 km/h aus SE

17.4 C

24.8 C

23.9 C

24.8 C

0 W/m

0.00 mm

22:35

23.8 C

1011.0 hpa

68 %

4.8 km/h aus 110

8.0 km/h aus SE

17.5 C

24.6 C

23.8 C

24.6 C

0 W/m

0.00 mm

22:40

23.6 C

1011.0 hpa

68 %

4.8 km/h aus 111

9.7 km/h aus SE

17.4 C

24.4 C

23.6 C

24.4 C

0 W/m

0.00 mm

22:45

23.4 C

1010.9 hpa

69 %

6.4 km/h aus 114

9.7 km/h aus SE

17.4 C

24.3 C

23.4 C

24.3 C

0 W/m

0.00 mm

22:50

23.3 C

1010.9 hpa

70 %

6.4 km/h aus 111

11.3 km/h aus ESE

17.6 C

24.2 C

23.3 C

24.2 C

0 W/m

0.00 mm

22:55

23.2 C

1010.9 hpa

70 %

6.4 km/h aus 115

11.3 km/h aus ESE

17.4 C

23.9 C

23.2 C

23.9 C

0 W/m

0.00 mm

23:00

23.1 C

1010.9 hpa

71 %

8.0 km/h aus 114

11.3 km/h aus ESE

17.5 C

23.8 C

23.1 C

23.8 C

0 W/m

0.00 mm

23:05

22.9 C

1010.9 hpa

71 %

4.8 km/h aus 115

9.7 km/h aus ESE

17.4 C

23.7 C

22.9 C

23.7 C

0 W/m

0.00 mm

23:10

22.8 C

1010.9 hpa

72 %

6.4 km/h aus 110

9.7 km/h aus ESE

17.5 C

23.5 C

22.8 C

23.5 C

0 W/m

0.00 mm

23:15

22.7 C

1010.8 hpa

72 %

6.4 km/h aus 115

11.3 km/h aus ESE

17.4 C

23.3 C

22.7 C

23.3 C

0 W/m

0.00 mm

23:20

22.6 C

1010.8 hpa

72 %

8.0 km/h aus 111

12.9 km/h aus ESE

17.3 C

23.2 C

22.6 C

23.2 C

0 W/m

0.00 mm

23:25

22.5 C

1010.8 hpa

73 %

6.4 km/h aus 106

11.3 km/h aus ESE

17.4 C

23.1 C

22.5 C

23.1 C

0 W/m

0.00 mm

23:30

22.3 C

1010.8 hpa

73 %

6.4 km/h aus 115

9.7 km/h aus ESE

17.3 C

22.9 C

22.3 C

22.9 C

0 W/m

0.00 mm

23:35

22.3 C

1010.8 hpa

73 %

6.4 km/h aus 110

9.7 km/h aus ESE

17.2 C

22.8 C

22.3 C

22.8 C

0 W/m

0.00 mm

23:40

22.2 C

1010.8 hpa

73 %

6.4 km/h aus 111

9.7 km/h aus ESE

17.1 C

22.7 C

22.2 C

22.7 C

0 W/m

0.00 mm

23:45

22.1 C

1010.9 hpa

74 %

6.4 km/h aus 111

9.7 km/h aus ESE

17.2 C

22.6 C

22.1 C

22.6 C

0 W/m

0.00 mm

23:50

21.9 C

1010.9 hpa

74 %

4.8 km/h aus 113

8.0 km/h aus ESE

17.1 C

22.4 C

21.9 C

22.4 C

0 W/m

0.00 mm

23:55

21.9 C

1010.9 hpa

74 %

4.8 km/h aus 110

8.0 km/h aus ESE

17.0 C

22.3 C

21.9 C

22.3 C

0 W/m

0.00 mm